Regional Weather Roundup
Issued by NWS

Home | Current Version | Previous Version | Text Only | Print | Product List | Glossary On
Versions: 1 2 3 4 5 6 7 8 9 10 11 12 13 14 15 16 17 18 19 20 21 22 23 24 25 26 27 28 29 30 31 32 33 34 35 36 37 38 39 40 41 42 43 44 45 46 47 48 49 50
000
ASUS43 KMKX 281600
RWRWI

WISCONSIN REGIONAL WEATHER ROUNDUP
NATIONAL WEATHER SERVICE MILWAUKEE/SULLIVAN WI
1100 AM CDT MON JUL 28 2014

NOTE: "FAIR" INDICATES FEW OR NO CLOUDS BELOW 12,000 FEET WITH NO
SIGNIFICANT WEATHER AND/OR OBSTRUCTIONS TO VISIBILITY.

WIZ001-002-006>008-014>016-023>028-281700-
NORTHWEST WISCONSIN

CITY           SKY/WX    TMP DP  RH WIND       PRES   REMARKS
SUPERIOR ARPT  SUNNY     70  55  58 N9G17     30.17S
ASHLAND        PTSUNNY   69  55  60 NW8G17    30.15F
HAYWARD        PTSUNNY   68  53  58 N7        30.18S
SIREN          MOSUNNY   67  55  64 W6        30.20S
RICE LAKE      CLOUDY    66  53  64 W5        30.20S
LADYSMITH      MOSUNNY   67  54  61 NW14      30.19S
EAU CLAIRE     NOT AVBL
MENOMONIE      CLOUDY    68  54  61 W6        30.20R
NEW RICHMOND   CLOUDY    66  57  71 CALM      30.21S
OSCEOLA        CLOUDY    65  60  81 NW5       30.23S
$$

WIZ003>005-009-010-017-018-281700-
NORTH CENTRAL WISCONSIN

CITY           SKY/WX    TMP DP  RH WIND       PRES   REMARKS
WOODRUFF       SUNNY     68  54  61 NW10G18   30.14R
RHINELANDER    SUNNY     65  52  62 NW13G18   30.14S
EAGLE RIVER    SUNNY     65  49  55 N13       30.12F
LAND O LAKES   SUNNY     66  50  55 NW12G20   30.13S
PHILLIPS       SUNNY     65  53  67 NW9       30.15S
TOMAHAWK       SUNNY     65  51  62 NW12G18   30.14F
MEDFORD        MOSUNNY   64  52  65 NW12      30.16S
MERRILL        SUNNY     66  53  63 NW9       30.13F
$$

WIZ029-030-035-036-043>047-281700-
CENTRAL WISCONSIN

CITY           SKY/WX    TMP DP  RH WIND       PRES   REMARKS
WAUSAU         SUNNY     67  51  56 NW12G23   30.12S
MOSINEE        SUNNY     66  54  63 NW10G16   30.15S
MARSHFIELD     CLOUDY    69  51  52 NW16      30.15F
STEVENS POINT  CLOUDY    63  50  62 NW5       30.15S
WAUPACA        CLOUDY    67  51  54 NW8       30.13S
WAUTOMA        NOT AVBL
WISC RAPIDS    CLOUDY    68  52  56 NW12      30.16S
CAMP DOUGLAS   NOT AVBL
$$

WIZ011>013-019>022-031-037>040-048>050-281700-
NORTHEAST WISCONSIN

CITY           SKY/WX    TMP DP  RH WIND       PRES   REMARKS
ANTIGO         SUNNY     64  53  66 NW12      30.13S
STURGEON BAY   SUNNY     59  43  55 N14G20    30.10S
GREEN BAY      CLOUDY    63  47  55 N9        30.11S
MANITOWOC      NOT AVBL
APPLETON       PTSUNNY   61  46  59 N8        30.13R
CLINTONVILLE   CLOUDY    64  48  55 N5        30.12R
OSHKOSH        CLOUDY    64  49  57 N10       30.12S
$$

WIZ032>034-041-042-053>061-281700-
SOUTHWEST WISCONSIN

CITY           SKY/WX    TMP DP  RH WIND       PRES   REMARKS
LA CROSSE      SUNNY     71  53  52 NW9       30.17S
SPARTA         SUNNY     68  50  52 N8        30.17F
VIROQUA        FAIR      67  50  55 N10       30.18S
BOSCOBEL       SUNNY     72  49  44 MISG      30.17S
PRAIRIE DU CHI SUNNY     69  46  44 N10       30.17S
PLATTEVILLE    FAIR      67  50  54 N17       30.17S
$$

WIZ056-057-062-063-064-067-068-281700-
SOUTH CENTRAL WISCONSIN

CITY           SKY/WX    TMP DP  RH WIND       PRES   REMARKS
BARABOO/DELLS  SUNNY     67  46  46 N9        30.15S
LONE ROCK      NOT AVBL
WATERTOWN      SUNNY     63  50  61 N9        30.12R
MADISON        MOSUNNY   68  49  50 N10G20    30.14S
MIDDLETON      FAIR      66  47  49 N12       30.15R
MONROE         SUNNY     64  46  52 N14G21    30.14R
JANESVILLE     MOSUNNY   66  45  45 N14G21    30.12R
$$

WIZ051-052-058>065-066-070>072-281700-
SOUTHEAST WISCONSIN

CITY           SKY/WX    TMP DP  RH WIND       PRES   REMARKS
MILWAUKEE      MOSUNNY   63  46  54 NE17      30.10R
WAUKESHA       NOT AVBL
MILWAUKEE/TIMM SUNNY     63  43  48 N17G24    30.10R
RACINE         SUNNY     62  47  57 N18G24    30.11R
BURLINGTON     SUNNY     63  47  57 N9        30.10R
KENOSHA        SUNNY     64  48  56 NE12G20   30.10R
FOND DU LAC    CLOUDY    64  48  56 NW12      30.12S
SHEBOYGAN      SUNNY     64  48  56 N13       30.09S
WEST BEND      SUNNY     61  43  51 N16G23    30.10S
JUNEAU         SUNNY     62  45  52 N13G18    30.13S
$$

LSZ147-162-281700-
LAKE SUPERIOR

STATION/POSITION TIME  TEMP    WIND        PRES    WAVE
                       AIR SEA DIR/SP/G            HT/PER
                 (UTC) (F)     (DEG/KT/KT) (MB)    (FT/S)
W MID LAKE BUOY  1450   48 43  270/  6/  8 1019.8S   1
PORT WING        1500   62     260/  7/  9 1021.3S
SAXON HARBOR     1500          320/  3/  7 1021.0
$$

LMZ867-665-643>646-281700-
LAKE MICHIGAN

STATION/POSITION TIME  TEMP    WIND        PRES    WAVE
                       AIR SEA DIR/SP/G            HT/PER
                 (UTC) (F)     (DEG/KT/KT) (MB)    (FT/S)
N MID LAKE BUOY  1450   54 52  340/ 12/ 14 1017.8R   3/ 5
NORTHPORT PIER   1500   56     340/ 10/ 12 1019.0S
SISTER BAY       1440   59     350/ 14/ 18   N/A
KEWAUNEE LAKESHO 1500   60     350/  8/ 14 1019.5R
SHEBOYGAN LAKESH 1500   55      20/  9/ 10 1019.3R
PORT WASHINGTON  1540   64     350/  8/ 17 1019.3R
ATWATER BUOY     1500   59      10/ 16     1019.5R
MILWAUKEE LAKESH 1500   58      30/ 14/ 18   N/A
S MID LAKE BUOY  1450   56 59  340/ 23/ 27 1017.0R   8/ 7
KENOSHA   LAKESH 1500   58     350/ 18/ 25 1018.3R
$$

TC  - TEMPERATURE IN CELSIUS
VSB - VISIBILITY IN STATUTE MILES
WCI - WIND CHILL INDEX
HX  - HEAT INDEX




USA.gov is the U.S. government's official web portal to all federal, state and local government web resources and services.